Location: Gro�wechsungen
(51.4926°N, 10.6901°E)
Time: 09:30:17
(UTC+00:00)

SPOT 3 Rocket - Pass Details

Date: 27 January 2021
Orbit: 780 x 794 km, 98.7° (Epoch: 08 March)

Event Time Altitude Azimuth Distance (km) Brightness Sun altitude
Exits shadow 18:15:11 16° 22° (NNE) 1,980 5.4 -21.1°
Drops below altitude 10° 18:16:38 10° 8° (N) 2,351 5.9 -21.4°
Sets 18:19:27 0° 353° (N) 3,286 6.8 -21.8°
